Total_Precipitation_Accumulation
0.05 0.10 0.24 0.44 1.03 1.36 1.18 0.73 0.53 0.50 0.56 0.57 0.50 0.47 0.51 0.52 0.71 1.22 0.85 0.47 0.23 0.13 0.16 0.26 0.39 0.32 0.28 0.27 0.28 0.30 0.28 0.28 0.31 0.32 0.30 0.31 0.33 0.34 0.35 0.42 0.53 0.57 0.55 0.57 0.59 0.54 0.50 0.55 0.59
0.09 0.16 0.34 0.86 1.31 1.26 1.12 0.63 0.36 0.44 0.53 0.67 0.66 0.52 0.43 0.43 0.42 0.40 0.42 0.53 0.23 0.14 0.14 0.15 0.28 0.28 0.22 0.22 0.26 0.27 0.26 0.25 0.26 0.29 0.31 0.34 0.36 0.39 0.42 0.49 0.54 0.59 0.59 0.58 0.53 0.48 0.49 0.51 0.62
0.11 0.23 0.41 0.86 0.93 0.84 0.84 0.50 0.37 0.33 0.50 0.73 0.71 0.48 0.46 0.49 0.41 0.34 0.36 0.41 0.26 0.21 0.15 0.16 0.27 0.26 0.23 0.23 0.25 0.26 0.28 0.27 0.25 0.27 0.31 0.37 0.43 0.47 0.49 0.50 0.52 0.60 0.63 0.61 0.55 0.49 0.50 0.51 0.58
0.13 0.28 0.51 0.58 0.40 0.31 0.40 0.44 0.46 0.45 0.63 0.76 0.62 0.52 0.52 0.51 0.44 0.33 0.31 0.39 0.26 0.25 0.18 0.19 0.28 0.26 0.24 0.24 0.23 0.26 0.29 0.29 0.28 0.29 0.32 0.42 0.49 0.52 0.52 0.51 0.55 0.61 0.62 0.57 0.54 0.56 0.54 0.55 0.64
0.11 0.28 0.55 0.43 0.26 0.20 0.22 0.27 0.36 0.52 0.70 0.82 0.69 0.66 0.70 0.54 0.44 0.36 0.30 0.41 0.39 0.32 0.29 0.28 0.35 0.34 0.30 0.29 0.30 0.32 0.33 0.33 0.30 0.29 0.32 0.44 0.52 0.52 0.52 0.51 0.53 0.51 0.54 0.57 0.60 0.66 0.65 0.69 0.74
0.11 0.23 0.41 0.29 0.17 0.15 0.19 0.24 0.38 0.58 0.61 0.69 0.79 0.86 0.83 0.63 0.54 0.45 0.42 0.52 0.54 0.45 0.34 0.42 0.45 0.45 0.41 0.39 0.40 0.42 0.42 0.37 0.33 0.33 0.37 0.45 0.51 0.50 0.51 0.52 0.50 0.45 0.44 0.50 0.60 0.70 0.72 0.74 0.77
0.11 0.18 0.22 0.18 0.12 0.13 0.20 0.31 0.36 0.49 0.56 0.77 0.82 0.85 0.91 0.83 0.70 0.57 0.68 0.90 0.87 0.69 0.51 0.52 0.51 0.48 0.47 0.49 0.50 0.51 0.48 0.45 0.43 0.42 0.45 0.47 0.52 0.48 0.50 0.61 0.56 0.48 0.48 0.52 0.65 0.71 0.82 0.77 0.76
0.07 0.13 0.17 0.15 0.09 0.12 0.19 0.26 0.36 0.50 0.61 0.69 0.79 0.91 0.92 0.82 0.73 0.78 0.98 1.34 1.47 1.31 0.98 0.67 0.62 0.66 0.59 0.52 0.57 0.60 0.51 0.48 0.50 0.51 0.53 0.58 0.61 0.61 0.62 0.65 0.68 0.61 0.64 0.67 0.78 0.79 0.79 0.82 0.86
0.04 0.10 0.14 0.11 0.10 0.13 0.20 0.25 0.32 0.38 0.48 0.70 0.88 1.02 0.92 0.73 0.75 0.96 1.17 1.47 1.65 1.47 1.27 1.08 0.96 0.84 0.79 0.72 0.61 0.73 0.64 0.61 0.67 0.79 0.81 0.95 1.08 0.96 0.94 0.83 0.89 0.88 0.93 1.05 1.18 1.12 1.08 1.07 1.08
0.02 0.05 0.07 0.05 0.05 0.05 0.12 0.22 0.29 0.43 0.74 1.17 1.40 1.26 1.01 0.85 0.95 1.21 1.38 1.38 1.46 1.48 1.40 1.44 1.26 1.15 1.14 1.04 1.08 1.25 1.14 1.10 1.19 1.35 1.36 1.62 1.74 1.52 1.08 1.13 1.35 1.32 1.46 1.61 1.78 1.93 1.70 1.47 1.27
0.00 0.03 0.03 0.02 0.02 0.03 0.06 0.15 0.27 0.45 0.96 1.45 1.65 1.35 1.13 1.08 1.18 1.33 1.63 1.72 1.79 1.77 1.60 1.67 1.56 1.46 1.51 1.59 1.55 1.61 1.71 1.76 1.86 1.88 1.94 2.13 1.95 1.59 1.37 1.52 1.81 1.83 1.88 1.92 2.16 2.34 1.94 1.89 1.92
0.00 0.00 0.00 0.01 0.01 0.02 0.05 0.14 0.34 0.59 0.99 1.28 1.21 1.07 1.06 1.25 1.44 1.61 1.87 2.17 2.27 2.30 2.16 1.93 1.87 2.04 2.05 1.94 1.86 1.71 1.55 1.55 1.70 1.82 1.81 2.17 2.33 2.19 2.12 2.16 2.00 2.14 2.30 2.57 2.48 2.50 2.36 2.33 2.19
0.00 0.00 0.00 0.01 0.01 0.04 0.08 0.17 0.37 0.68 0.89 0.95 0.84 0.88 1.14 1.41 1.67 2.11 2.51 2.59 2.56 2.76 2.88 2.68 2.60 2.55 2.36 2.33 1.97 1.71 1.62 1.50 1.41 1.62 1.80 2.03 2.32 2.37 2.40 2.15 2.05 1.95 2.11 2.34 2.34 2.17 2.29 2.44 2.42
0.00 0.00 0.01 0.02 0.02 0.05 0.14 0.23 0.37 0.60 0.69 0.70 0.77 1.01 1.21 1.61 1.90 2.41 2.90 2.97 3.06 3.30 3.46 3.36 3.32 3.11 2.79 2.49 2.24 2.12 1.86 1.77 1.49 1.54 1.56 1.91 2.24 2.24 2.09 2.12 2.13 2.02 2.15 2.16 2.15 2.22 2.42 2.54 2.62
0.00 0.02 0.07 0.08 0.06 0.07 0.15 0.36 0.46 0.65 0.74 0.69 0.87 1.04 1.42 1.87 2.11 2.43 2.69 3.08 3.49 3.85 3.91 3.84 3.83 3.70 3.58 3.24 2.82 2.41 2.20 1.97 1.88 1.76 1.62 1.85 2.11 2.19 2.16 2.10 1.97 1.97 2.04 2.13 2.17 2.24 2.37 2.29 2.33
0.02 0.06 0.17 0.17 0.11 0.11 0.15 0.51 0.76 0.74 0.72 0.76 0.93 1.26 1.54 1.83 2.23 2.45 2.78 3.12 3.52 4.01 4.39 4.44 3.92 3.87 3.85 3.69 3.37 2.96 2.83 2.66 2.43 2.05 1.82 1.77 1.94 1.96 2.02 1.85 1.82 1.90 1.77 1.80 1.90 1.85 1.94 2.03 2.16
0.05 0.10 0.18 0.26 0.16 0.13 0.25 0.74 1.08 0.82 0.66 0.81 1.07 1.38 1.74 1.94 2.35 2.49 2.69 2.97 3.42 4.28 5.16 5.14 4.56 4.14 3.83 3.74 3.72 3.58 3.37 2.97 2.55 2.23 2.03 1.85 1.73 1.56 1.58 1.52 1.59 1.57 1.53 1.55 1.39 1.64 1.75 1.89 1.98
0.05 0.11 0.23 0.35 0.22 0.20 0.31 0.69 0.75 0.67 0.86 0.88 0.92 1.15 1.48 1.59 1.87 2.15 2.45 2.99 3.79 4.96 5.73 5.61 4.96 4.46 4.09 3.89 3.70 3.61 3.28 2.97 2.54 2.30 2.10 1.82 1.71 1.47 1.39 1.33 1.38 1.29 1.35 1.46 1.50 1.61 1.60 1.55 1.63
0.05 0.09 0.22 0.27 0.20 0.29 0.37 0.59 0.69 0.80 1.00 1.01 0.87 0.92 1.23 1.42 1.69 2.08 2.68 3.55 4.63 5.53 5.80 5.27 4.74 4.38 3.94 3.50 2.94 2.55 2.46 2.35 2.09 1.82 1.53 1.39 1.31 1.35 1.37 1.22 1.29 1.18 1.20 1.22 1.24 1.30 1.31 1.27 1.34
0.06 0.08 0.20 0.26 0.18 0.21 0.36 0.69 0.99 0.97 0.90 0.87 0.94 0.94 1.05 1.42 1.87 2.57 3.59 4.18 4.43 4.55 4.31 3.96 3.69 3.46 3.01 2.60 2.33 2.08 2.03 1.85 1.68 1.58 1.50 1.22 1.11 1.13 1.08 1.17 1.15 1.10 1.18 1.21 1.19 1.19 1.18 1.12 1.17
0.10 0.11 0.18 0.25 0.16 0.17 0.37 0.85 1.13 1.13 0.90 0.78 0.84 0.84 1.03 1.46 2.05 2.85 3.39 3.52 3.25 2.94 2.84 2.78 2.83 2.58 2.44 2.37 2.26 2.14 2.08 1.85 1.60 1.48 1.40 1.17 1.01 1.01 1.01 1.01 1.04 1.12 1.07 1.15 1.17 1.08 1.10 1.13 1.09
0.09 0.07 0.06 0.09 0.15 0.33 0.52 1.08 1.26 1.03 0.99 0.83 0.84 0.86 0.92 1.21 1.57 1.98 2.22 2.11 2.23 2.37 2.38 2.48 2.56 2.31 2.28 2.21 1.91 1.79 1.67 1.53 1.37 1.31 1.31 1.36 1.15 1.01 0.96 0.93 0.92 0.97 0.95 1.10 0.96 0.99 1.07 1.12 1.01
0.04 0.03 0.04 0.11 0.22 0.42 0.61 0.87 1.03 0.84 1.02 0.83 0.70 0.70 0.69 0.86 0.95 1.06 1.20 1.34 1.54 1.65 1.82 2.11 2.35 2.29 2.12 1.94 1.83 1.83 1.69 1.62 1.58 1.60 1.54 1.48 1.37 1.17 1.03 1.02 0.95 0.93 0.89 0.94 0.94 1.14 1.11 1.05 0.98
0.03 0.05 0.12 0.23 0.40 0.89 0.85 0.83 1.06 0.98 1.05 0.80 0.60 0.51 0.58 0.72 0.82 0.86 0.91 1.03 1.20 1.32 1.49 1.73 2.03 2.16 2.08 1.92 1.81 1.77 1.76 1.70 1.61 1.58 1.51 1.35 1.29 1.24 1.11 1.07 1.05 0.96 0.92 0.90 0.89 1.04 1.09 1.12 1.11
0.05 0.07 0.24 0.58 0.98 1.15 0.72 0.79 1.05 0.81 0.73 0.57 0.36 0.31 0.48 0.69 0.84 0.91 0.85 0.82 0.88 1.02 1.17 1.27 1.43 1.68 1.80 1.77 1.71 1.69 1.77 1.65 1.46 1.36 1.27 1.22 1.07 1.00 1.00 0.99 0.99 0.88 0.89 0.98 1.07 1.07 1.06 1.09 1.10
0.05 0.04 0.11 0.22 0.33 0.52 0.69 1.07 1.19 0.85 0.57 0.33 0.23 0.29 0.47 0.64 0.69 0.73 0.72 0.67 0.64 0.71 0.90 1.02 1.20 1.37 1.56 1.56 1.53 1.50 1.55 1.48 1.37 1.35 1.14 1.05 1.01 0.97 0.99 0.99 0.94 0.91 0.92 0.93 1.10 1.01 0.96 1.00 1.00
0.05 0.03 0.04 0.07 0.12 0.32 0.69 0.99 0.94 0.75 0.55 0.38 0.29 0.32 0.42 0.46 0.46 0.54 0.61 0.68 0.66 0.65 0.75 0.87 1.07 1.24 1.42 1.52 1.55 1.47 1.46 1.46 1.44 1.37 1.19 1.04 1.11 1.06 1.12 1.07 1.00 0.99 1.04 1.09 1.16 1.06 1.04 1.09 0.99
0.05 0.04 0.04 0.05 0.11 0.24 0.52 0.90 1.09 0.92 0.68 0.49 0.40 0.38 0.44 0.43 0.36 0.48 0.60 0.63 0.56 0.49 0.56 0.70 0.86 1.09 1.23 1.39 1.43 1.33 1.48 1.46 1.45 1.38 1.25 1.11 1.08 1.08 1.15 1.13 1.05 1.06 1.09 1.14 1.21 1.11 1.13 1.14 1.09
0.07 0.06 0.06 0.05 0.08 0.14 0.36 0.58 0.56 0.51 0.44 0.41 0.46 0.44 0.34 0.35 0.32 0.41 0.50 0.53 0.49 0.42 0.44 0.52 0.69 0.87 0.97 1.08 1.18 1.19 1.26 1.25 1.25 1.29 1.27 1.22 1.17 1.14 1.13 1.12 1.10 1.07 1.10 1.16 1.21 1.17 1.17 1.13 1.16
0.09 0.09 0.09 0.08 0.08 0.09 0.18 0.36 0.31 0.34 0.35 0.36 0.47 0.52 0.43 0.40 0.44 0.40 0.36 0.45 0.55 0.49 0.40 0.46 0.61 0.73 0.80 0.87 0.90 0.95 1.03 1.08 1.07 1.08 1.16 1.23 1.16 1.08 1.12 1.14 1.08 0.98 1.04 1.18 1.21 1.17 1.18 1.20 1.17